N8FIS Weather Reports


time (UTC)temp
C
wind
direction
speed
KPH
gust
KPH
rain 1hr
cm
rain 24hr
cm
rain mn
cm
humidity
%
barometer
mb
20260506051054 8 288 0.0 0.0 0.18 2.36 0.20 96 1007.9
20260506050545 8 288 0.0 0.0 0.18 2.36 0.20 96 1007.9
20260506050115 8 288 0.0 0.0 0.18 2.34 0.18 96 1007.9
20260506045117 8 288 0.0 0.0 0.20 2.34 0.18 96 1007.7
20260506044619 8 288 0.0 0.0 0.20 2.31 0.15 96 1007.8
20260506044045 8 288 0.0 0.0 0.18 2.29 0.13 96 1007.8
20260506043549 8 288 0.0 0.0 0.20 2.29 0.13 96 1007.8
20260506043045 8 288 0.0 0.0 0.18 2.26 0.10 96 1007.8
20260506042105 8 288 0.0 0.0 0.15 2.21 0.05 96 1007.8
20260506041550 8 288 0.0 0.0 0.15 2.21 0.05 96 1007.9
20260506041044 8 288 0.0 0.0 0.15 2.18 0.03 96 1007.8
20260506040548 8 288 0.0 0.0 0.18 2.18 0.03 96 1007.7
20260506040117 8 288 0.0 0.0 0.18 2.16 2.16 96 1007.8
20260506035557 8 288 0.0 0.0 0.20 2.16 2.16 96 1007.8
20260506035042 8 288 0.0 0.0 0.20 2.13 2.13 95 1007.7
20260506034605 8 288 0.0 0.0 0.20 2.11 2.11 96 1007.9
20260506034050 8 288 0.0 0.0 0.23 2.11 2.11 95 1007.8
20260506033555 8 288 0.0 0.0 0.20 2.08 2.08 95 1007.8
20260506033059 8 288 0.0 0.0 0.23 2.08 2.08 95 1007.8
20260506032544 8 288 0.0 0.0 0.25 2.08 2.08 95 1007.7
20260506032113 8 288 0.0 0.0 0.23 2.06 2.06 95 1007.6
20260506031558 8 288 0.0 0.0 0.25 2.06 2.06 95 1007.8
20260506031043 8 288 0.0 0.0 0.25 2.03 2.03 95 1008.0
20260506030547 8 288 0.0 0.0 0.25 2.01 2.01 95 1008.1
20260506030053 8 288 0.0 0.0 0.25 1.98 1.98 95 1008.2
20260506025557 8 288 0.0 0.0 0.28 1.96 1.96 95 1008.3
20260506025101 8 288 0.0 0.0 0.28 1.93 1.93 95 1008.3
20260506024546 8 288 0.0 0.0 0.28 1.91 1.91 95 1008.3
20260506024046 8 288 0.0 0.0 0.28 1.88 1.88 95 1008.3
20260506023610 8 288 0.0 0.0 0.30 1.88 1.88 95 1008.3
20260506023054 8 288 0.0 0.0 0.28 1.85 1.85 95 1008.3
20260506022559 8 288 0.0 0.0 0.30 1.85 1.85 95 1008.1
20260506022045 8 288 0.0 0.0 0.30 1.83 1.83 95 1008.2
20260506021614 8 288 0.0 0.0 0.28 1.80 1.80 95 1008.2
20260506021059 8 288 0.0 0.0 0.28 1.78 1.78 95 1008.1
20260506020547 8 288 0.0 0.0 0.28 1.75 1.75 95 1008.1
20260506020119 8 288 0.0 0.0 0.25 1.73 1.73 95 1008.1
20260506015603 8 288 0.0 0.0 0.23 1.68 1.68 95 1008.1
20260506015117 8 288 0.0 0.0 0.20 1.65 1.65 95 1008.0
20260506014601 8 288 0.0 0.0 0.20 1.63 1.63 95 1007.9
20260506014046 8 288 0.0 0.0 0.18 1.60 1.60 95 1007.8
20260506013550 8 288 0.0 0.0 0.15 1.57 1.57 95 1007.7
20260506013054 8 288 0.0 0.0 0.15 1.57 1.57 95 1007.7
20260506012559 8 288 0.0 0.0 0.13 1.55 1.55 95 1007.8
20260506012043 8 288 0.0 0.0 0.13 1.52 1.52 95 1007.7
20260506011550 8 288 0.0 0.0 0.13 1.52 1.52 94 1007.6
20260506011055 8 288 0.0 0.0 0.10 1.50 1.50 94 1007.5
20260506010541 8 288 0.0 0.0 0.10 1.47 1.47 94 1007.4
20260506010048 8 288 0.0 0.0 0.10 1.47 1.47 94 1007.2
20260506005554 8 288 0.0 0.0 0.10 1.45 1.45 94 1007.2
20260506005059 8 288 0.0 0.0 0.10 1.45 1.45 94 1007.3
20260506004543 8 288 0.0 0.0 0.08 1.42 1.42 94 1007.3
20260506004050 8 288 0.0 0.0 0.10 1.42 1.42 94 1007.3
20260506003557 8 288 0.0 0.0 0.10 1.42 1.42 94 1007.4
20260506003042 8 288 0.0 0.0 0.10 1.42 1.42 94 1007.4
20260506002547 8 288 0.0 0.0 0.10 1.42 1.42 94 1007.4
20260506002052 8 288 0.0 0.0 0.08 1.40 1.40 94 1007.3
20260506001559 9 288 0.0 0.0 0.10 1.40 1.40 94 1007.4
20260506001045 9 288 0.0 0.0 0.10 1.40 1.40 94 1007.4
20260506000547 9 288 0.0 0.0 0.10 1.37 1.37 94 1007.5
20260506000119 9 288 0.0 0.0 0.10 1.37 1.37 94 1007.5
20260505235543 9 288 0.0 0.0 0.08 1.35 1.35 94 1007.4
20260505235050 9 288 0.0 0.0 0.08 1.35 1.35 94 1007.4
20260505234555 9 288 0.0 3.2 0.08 1.35 1.35 94 1007.3
20260505234100 9 288 0.0 3.2 0.08 1.35 1.35 94 1007.2
20260505233544 10 288 0.0 1.6 0.08 1.32 1.32 94 1007.1
20260505233050 10 288 0.0 3.2 0.08 1.32 1.32 94 1007.2
20260505232556 10 288 0.0 3.2 0.08 1.32 1.32 94 1007.1
20260505232103 10 288 0.0 3.2 0.10 1.32 1.32 94 1007.1
20260505231547 10 288 0.0 4.8 0.08 1.30 1.30 94 1007.1
20260505231053 9 288 0.0 4.8 0.10 1.30 1.30 94 1007.0
20260505230543 9 288 0.0 3.2 0.10 1.27 1.27 94 1007.1
20260505230048 10 288 0.0 6.4 0.13 1.27 1.27 94 1007.0
20260505225552 10 288 1.6 6.4 0.15 1.27 1.27 94 1007.1
20260505225058 10 288 0.0 3.2 0.23 1.27 1.27 94 1007.1
20260505224545 10 288 1.6 3.2 0.25 1.27 1.27 94 1007.1
20260505224051 10 288 0.0 3.2 0.28 1.27 1.27 94 1007.0
20260505223622 10 288 0.0 0.0 0.30 1.27 1.27 94 1006.8
20260505223108 10 288 0.0 0.0 0.33 1.24 1.24 94 1006.9
20260505222552 10 288 0.0 0.0 0.38 1.24 1.24 94 1007.2
20260505222058 10 288 0.0 0.0 0.38 1.22 1.22 94 1007.2
20260505221546 10 288 0.0 0.0 0.43 1.22 1.22 94 1007.2
20260505221053 10 288 0.0 1.6 0.46 1.19 1.19 94 1007.2
20260505220559 10 288 0.0 1.6 0.48 1.17 1.17 94 1007.3
20260505220111 10 288 0.0 3.2 0.46 1.14 1.14 94 1007.2
20260505215556 10 288 0.0 3.2 0.46 1.12 1.12 93 1007.1
20260505215043 10 288 0.0 3.2 0.41 1.04 1.04 94 1007.2
20260505214547 10 288 0.0 3.2 0.38 1.02 1.02 93 1007.0
20260505214049 10 288 0.0 6.4 0.38 0.99 0.99 93 1006.9
20260505213556 10 288 1.6 6.4 0.38 0.97 0.97 93 1006.8
20260505213042 10 330 0.0 3.2 0.33 0.91 0.91 93 1006.7
20260505212546 10 330 1.6 3.2 0.33 0.89 0.89 93 1006.7
20260505212056 11 330 0.0 0.0 0.30 0.84 0.84 93 1006.7
20260505211544 10 330 0.0 1.6 0.25 0.79 0.79 93 1006.8
20260505211049 10 330 0.0 3.2 0.20 0.74 0.74 93 1006.8
20260505210556 10 330 0.0 3.2 0.20 0.71 0.71 92 1006.7
20260505210043 11 330 0.0 1.6 0.18 0.69 0.69 92 1006.6
20260505205549 11 330 0.0 1.6 0.15 0.66 0.66 92 1006.5
20260505205120 11 330 0.0 3.2 0.15 0.64 0.64 92 1006.6
20260505204544 11 330 0.0 6.4 0.15 0.64 0.64 92 1006.6
20260505204052 10 330 1.6 6.4 0.13 0.61 0.61 92 1006.6
20260505203557 10 330 1.6 4.8 0.13 0.58 0.58 92 1006.5
20260505203044 11 330 1.6 8.0 0.13 0.58 0.58 92 1006.5
20260505202550 11 330 4.8 8.0 0.13 0.56 0.56 92 1006.5
20260505202055 11 330 0.0 4.8 0.15 0.53 0.53 92 1006.8
20260505201556 11 330 0.0 3.2 0.18 0.53 0.53 92 1006.8
20260505201109 11 330 0.0 4.8 0.20 0.53 0.53 92 1006.7
20260505200555 11 330 0.0 6.4 0.20 0.51 0.51 92 1006.8
20260505200042 11 330 1.6 6.4 0.23 0.51 0.51 92 1006.9
20260505195547 11 330 0.0 4.8 0.23 0.51 0.51 92 1007.2
20260505195053 11 330 0.0 1.6 0.23 0.48 0.48 92 1007.3
20260505194558 11 330 0.0 4.8 0.23 0.48 0.48 92 1007.2
20260505194045 11 330 1.6 6.4 0.28 0.48 0.48 92 1007.2
20260505193552 11 330 1.6 6.4 0.28 0.46 0.46 92 1007.3
20260505193100 12 329 0.0 3.2 0.28 0.46 0.46 92 1007.3
20260505192546 12 330 0.0 3.2 0.25 0.43 0.43 92 1007.3
20260505192117 12 330 0.0 3.2 0.25 0.41 0.41 92 1007.3
20260505191542 12 330 1.6 3.2 0.20 0.36 0.36 92 1007.2
20260505191048 12 330 1.6 3.2 0.20 0.33 0.33 92 1007.0
20260505190554 12 330 0.0 1.6 0.18 0.30 0.30 91 1006.8
20260505190041 12 330 0.0 3.2 0.18 0.28 0.28 92 1006.7
20260505185541 13 330 1.6 3.2 0.20 0.28 0.28 91 1006.7
20260505185046 13 330 0.0 1.6 0.20 0.25 0.25 91 1006.7
20260505184553 13 330 0.0 3.2 0.23 0.25 0.25 91 1006.7
20260505184059 13 330 0.0 6.4 0.18 0.20 0.20 91 1006.8
20260505183547 13 330 0.0 6.4 0.18 0.18 0.18 90 1006.7
20260505183054 13 330 0.0 4.8 0.18 0.18 0.18 90 1006.6
20260505182559 13 330 0.0 8.0 0.18 0.18 0.18 90 1006.6
20260505182044 13 329 3.2 8.0 0.15 0.15 0.15 90 1006.5
20260505181612 13 329 1.6 4.8 0.15 0.15 0.15 89 1006.3
20260505181102 13 329 0.0 4.8 0.13 0.13 0.13 88 1006.3
20260505180545 13 329 0.0 4.8 0.13 0.13 0.13 87 1006.5
20260505180049 13 330 0.0 1.6 0.10 0.10 0.10 86 1006.4
20260505175555 14 330 1.6 3.2 0.08 0.08 0.08 85 1006.3
20260505175058 14 329 0.0 3.2 0.05 0.05 0.05 85 1006.5
20260505174542 15 330 0.0 1.6 0.05 0.05 0.05 84 1006.2
20260505174048 15 330 0.0 3.2 0.03 0.03 0.03 84 1006.4
20260505173551 15 330 1.6 3.2 0.00 0.00 0.00 82 1006.3
20260505173100 15 330 0.0 4.8 0.00 0.00 0.00 81 1006.3
20260505172544 15 330 0.0 4.8 0.00 0.00 0.00 80 1006.3
20260505172046 15 330 0.0 6.4 0.00 0.00 0.00 79 1006.3
20260505171617 15 330 1.6 6.4 0.00 0.00 0.00 79 1006.3
20260505171100 15 330 1.6 6.4 0.00 0.00 0.00 80 1006.3
20260505170545 15 330 1.6 6.4 0.00 0.00 0.00 80 1006.4
20260505170051 15 330 1.6 4.8 0.00 0.00 0.00 79 1006.5
20260505165557 16 330 1.6 9.7 0.00 0.00 0.00 79 1006.5
20260505165103 16 330 3.2 9.7 0.00 0.00 0.00 78 1006.5
20260505164549 16 240 1.6 6.4 0.00 0.00 0.00 78 1006.5
20260505164117 16 240 1.6 9.7 0.00 0.00 0.00 78 1006.5
20260505163600 16 242 1.6 19.3 0.00 0.00 0.00 78 1006.4
20260505163111 16 242 4.8 19.3 0.00 0.00 0.00 77 1006.4
20260505162618 16 232 3.2 8.0 0.00 0.00 0.00 77 1006.3
20260505162104 16 232 1.6 8.0 0.00 0.00 0.00 77 1006.3
20260505161548 16 224 1.6 3.2 0.00 0.00 0.00 77 1006.5
20260505161058 16 224 1.6 8.0 0.00 0.00 0.00 77 1006.4
20260505160543 16 224 3.2 25.7 0.00 0.00 0.00 76 1006.4
20260505160108 16 224 3.2 25.7 0.00 0.00 0.00 76 1006.3
20260505153100 16 61 3.2 11.3 0.00 0.00 0.00 76 1006.4
20260505152545 16 348 3.2 11.3 0.00 0.00 0.00 76 1006.4
20260505152051 16 179 3.2 11.3 0.00 0.00 0.00 76 1006.3
20260505151556 16 82 1.6 14.5 0.00 0.00 0.00 76 1006.2
20260505151059 16 312 4.8 14.5 0.00 0.00 0.00 75 1006.0
20260505150544 17 310 3.2 8.0 0.00 0.00 0.00 75 1006.0
20260505140551 17 305 4.8 17.7 0.00 0.00 0.00 72 1004.2
20260505124600 16 215 3.2 9.7 0.00 0.00 0.00 75 1004.2
20260505124045 16 283 3.2 9.7 0.00 0.00 0.00 76 1004.3
20260505123554 15 183 1.6 9.7 0.00 0.00 0.00 76 1004.3
20260505123041 16 154 1.6 14.5 0.00 0.00 0.00 76 1004.3
20260505122611 16 205 3.2 14.5 0.00 0.00 0.00 76 1004.0
20260505122055 15 337 1.6 12.9 0.00 0.00 0.00 76 1004.1
20260505121559 15 194 6.4 8.0 0.00 0.00 0.00 75 1004.2
20260505121046 15 290 1.6 9.7 0.00 0.00 0.00 75 1004.3
20260505120611 15 269 3.2 9.7 0.00 0.00 0.00 75 1004.2
20260505120055 15 229 1.6 8.0 0.00 0.00 0.00 76 1004.0
20260505115559 15 264 1.6 6.4 0.00 0.00 0.00 76 1003.9
20260505115054 15 70 1.6 6.4 0.00 0.00 0.00 76 1003.8
20260505114600 15 274 0.0 14.5 0.00 0.00 0.00 76 1003.8
20260505114100 15 237 4.8 14.5 0.00 0.00 0.00 76 1003.4
20260505113544 15 270 3.2 8.0 0.00 0.00 0.00 77 1003.3
20260505113049 15 243 1.6 11.3 0.00 0.00 0.00 77 1003.1
20260505112553 15 232 1.6 11.3 0.00 0.00 0.00 77 1003.0
20260505112058 15 240 3.2 9.7 0.00 0.00 0.00 77 1002.9
20260505111543 15 182 1.6 9.7 0.00 0.00 0.00 77 1002.7
20260505111049 15 5 0.0 6.4 0.00 0.00 0.00 78 1002.8
20260505110555 15 207 0.0 8.0 0.00 0.00 0.00 78 1002.7
20260505102043 15 263 1.6 11.3 0.00 0.00 0.00 76 1002.0
20260505101547 15 232 6.4 11.3 0.00 0.00 0.00 76 1002.2
20260505101117 15 209 3.2 11.3 0.00 0.00 0.00 76 1002.2
20260505100540 15 182 3.2 19.3 0.00 0.00 0.00 75 1002.1
20260505100046 15 250 4.8 19.3 0.00 0.00 0.00 75 1002.2
20260505095552 15 178 3.2 14.5 0.00 0.00 0.00 76 1002.2
20260505095052 15 218 3.2 19.3 0.00 0.00 0.00 76 1002.2
20260505094617 15 325 6.4 19.3 0.00 0.00 0.00 76 1002.2
20260505094040 15 304 4.8 17.7 0.00 0.00 0.00 76 1002.2
20260505093545 15 169 3.2 17.7 0.00 0.00 0.00 76 1002.2
20260505093050 16 288 4.8 16.1 0.00 0.00 0.00 75 1002.1
20260505092546 16 184 3.2 16.1 0.00 0.00 0.00 74 1002.2
20260505092050 16 347 3.2 8.0 0.00 0.00 0.00 74 1002.1
20260505091620 16 226 1.6 11.3 0.00 0.00 0.00 74 1001.8
20260505091044 16 281 3.2 11.3 0.00 0.00 0.00 73 1001.7
20260505090548 16 208 3.2 9.7 0.00 0.00 0.00 73 1001.6
20260505090054 16 211 3.2 11.3 0.00 0.00 0.00 72 1001.7
20260505085546 16 242 3.2 17.7 0.00 0.00 0.00 72 1001.7
20260505085052 17 338 3.2 17.7 0.00 0.00 0.00 71 1001.6
20260505084540 17 199 3.2 29.0 0.00 0.00 0.00 70 1001.6
20260505084046 17 304 4.8 29.0 0.00 0.00 0.00 70 1001.6
20260505083552 17 186 6.4 24.1 0.00 0.00 0.00 69 1001.6
20260505083055 17 205 4.8 19.3 0.00 0.00 0.00 69 1001.6
20260505082542 17 290 4.8 19.3 0.00 0.00 0.00 69 1001.4
20260505082047 17 292 3.2 19.3 0.00 0.00 0.00 69 1001.4
20260505081553 17 297 3.2 12.9 0.00 0.00 0.00 69 1001.4
20260505081058 17 228 1.6 12.9 0.00 0.00 0.00 70 1001.2
20260505080543 17 213 1.6 14.5 0.00 0.00 0.00 71 1001.1
20260505080047 17 235 6.4 14.5 0.00 0.00 0.00 71 1001.1
20260505075552 17 234 4.8 11.3 0.00 0.00 0.00 72 1001.2
20260505075058 17 236 3.2 9.7 0.00 0.00 0.00 72 1001.1
20260505074545 17 244 1.6 9.7 0.00 0.00 0.00 72 1000.9
20260505074057 17 202 1.6 12.9 0.00 0.00 0.00 71 1000.8
20260505073544 17 245 3.2 12.9 0.00 0.00 0.00 71 1000.8
20260505073051 17 207 1.6 4.8 0.00 0.00 0.00 71 1000.8
20260505072558 17 207 3.2 11.3 0.00 0.00 0.00 70 1000.9
20260505072045 17 207 3.2 16.1 0.00 0.00 0.00 70 1001.0
20260505071554 17 207 3.2 16.1 0.00 0.00 0.00 70 1001.0
20260505071039 17 219 1.6 8.0 0.00 0.00 0.00 70 1000.9
20260505070557 18 219 1.6 8.0 0.00 0.00 0.00 69 1001.1
20260505070104 18 219 1.6 4.8 0.00 0.00 0.00 69 1001.1
20260505065543 18 219 0.0 3.2 0.00 0.00 0.00 69 1001.2
20260505065048 18 219 0.0 0.0 0.00 0.00 0.00 69 1001.3
20260505064546 18 219 0.0 0.0 0.00 0.00 0.00 68 1001.4
20260505064055 18 219 0.0 3.2 0.00 0.00 0.00 68 1001.3
20260505063541 18 219 0.0 3.2 0.00 0.00 0.00 67 1001.4
20260505063050 18 219 0.0 6.4 0.00 0.00 0.00 66 1001.4
20260505062556 18 219 1.6 6.4 0.00 0.00 0.00 66 1001.4
20260505062102 19 219 1.6 6.4 0.00 0.00 0.00 65 1001.5
20260505061547 19 227 1.6 6.4 0.00 0.00 0.00 65 1001.5
20260505061054 19 227 1.6 6.4 0.00 0.00 0.00 65 1001.7
20260505060559 19 227 1.6 11.3 0.00 0.00 0.00 65 1001.7
20260505060040 19 271 1.6 11.3 0.00 0.00 0.00 64 1001.5